EST,Max TemperatureF,Mean TemperatureF,Min TemperatureF,Max Dew PointF,MeanDew PointF,Min DewpointF,Max Humidity, Mean Humidity, Min Humidity, Max Sea Level PressureIn, Mean Sea Level PressureIn, Min Sea Level PressureIn, Max VisibilityMiles, Mean VisibilityMiles, Min VisibilityMiles, Max Wind SpeedMPH, Mean Wind SpeedMPH, Max Gust SpeedMPH,PrecipitationIn, CloudCover, Events, WindDirDegrees
2013-2-1,26,17,8,25,7,1,93,74,57,30.31,30.15,29.79,10,6,0,23,11,37,5.08,5,Rain-Snow,254
2013-2-2,28,16,5,28,13,1,100,82,54,30.29,30.11,29.95,10,6,1,18,3,25,0.68,4,Rain-Snow,217
2013-2-3,28,24,21,28,23,14,100,90,74,30.05,29.90,29.81,10,4,1,21,9,29,1.98,8,Rain-Snow,252
2013-2-4,32,26,19,32,22,12,100,82,55,30.07,29.95,29.85,10,6,0,14,8,18,1.97,5,Snow,221
2013-2-5,35,34,32,36,33,32,100,99,93,29.92,29.86,29.83,10,5,0,15,7,22,0.68,8,Fog-Rain-Snow,235
2013-2-6,33,30,28,34,30,27,100,94,75,30.27,30.17,29.93,10,7,3,12,5,16,0.00,6,,278
2013-2-7,50,39,28,34,30,28,100,77,43,30.26,30.13,29.95,10,9,3,10,2,,0.00,0,,137
2013-2-8,41,34,28,39,32,21,100,86,74,30.18,29.94,29.82,10,9,2,21,6,29,0.10,5,Rain,263
2013-2-9,33,28,23,23,19,14,86,69,52,30.37,30.31,30.19,10,9,2,12,6,21,0.27,4,Rain-Snow,301
2013-2-10,57,39,21,37,21,14,93,57,24,30.30,30.16,29.95,10,10,5,16,4,28,0.00,1,Rain,147
2013-2-11,60,51,42,48,35,21,87,54,23,29.97,29.87,29.77,10,10,7,30,14,54,0.00,4,,225
2013-2-12,48,40,33,27,23,19,75,54,34,30.10,30.01,29.90,10,10,10,23,14,34,0.00,1,,245
2013-2-13,44,37,30,36,27,21,100,77,39,29.92,29.76,29.61,10,8,1,13,3,18,1.02,3,Rain-Snow,264
2013-2-14,42,36,30,32,29,27,100,80,57,29.99,29.94,29.88,10,10,10,17,8,22,0.00,5,,207
2013-2-15,41,36,30,34,31,28,100,91,65,30.05,30.01,29.94,10,7,0,10,5,17,1.66,6,Snow,246
2013-2-16,30,26,21,30,21,16,100,81,59,30.02,29.95,29.90,10,9,0,15,5,24,1.39,6,Snow,316
2013-2-17,21,16,12,18,9,5,93,69,50,30.23,30.07,29.91,10,8,1,15,10,26,3.72,5,Snow,272
2013-2-18,48,28,8,32,17,3,92,60,39,30.26,30.14,29.92,10,10,10,15,3,20,0.00,0,,183
2013-2-19,46,37,28,39,29,18,93,70,43,29.96,29.84,29.73,10,9,2,30,13,47,0.05,5,Rain-Snow,228
2013-2-20,28,24,19,23,15,10,93,69,55,30.21,30.09,29.96,10,8,2,18,12,28,1.42,6,Snow,277
2013-2-21,28,22,17,18,15,10,80,72,64,30.28,30.22,30.15,10,10,6,9,6,,0.00,5,Snow,260
2013-2-22,51,38,26,41,33,18,100,76,58,30.18,30.02,29.96,10,10,3,13,3,,0.00,4,Rain,131
2013-2-23,53,44,35,43,37,32,100,80,50,29.97,29.89,29.83,10,10,10,13,2,18,0.00,3,,258
2013-2-24,37,30,24,34,25,18,93,77,56,30.13,30.00,29.86,10,10,10,17,6,22,0.00,3,,284
2013-2-25,42,30,19,23,20,19,100,65,39,30.17,30.09,29.98,10,10,8,9,2,,0.00,1,,39
2013-2-26,48,42,35,43,31,19,100,66,49,30.01,29.73,29.53,10,9,2,24,8,34,0.17,3,Rain,105
2013-2-27,42,37,32,43,35,32,100,90,70,29.71,29.66,29.55,10,8,1,18,9,25,1.10,8,Rain-Snow,239
2013-2-28,32,32,32,32,31,30,100,96,93,29.82,29.72,29.66,10,5,1,15,10,24,0.87,8,Rain-Snow,240